This is the latest recevied weather packets stored in our database for station/object W6DSP. If no packets are shown the sender has not sent any weather packets the latest 10 day(s).
| Time | Temp. | Humidity | Pressure | Rain* | Wind** | Luminosity | Snow |
|---|---|---|---|---|---|---|---|
| 1777883516 | 10° C | 78% | 1007.9 hPa | 0 mm | - | - | - |
| 1777882798 | 10° C | 77% | 1007.9 hPa | 0 mm | - | - | - |
| 1777882105 | 9.44° C | 79% | 1008 hPa | 0 mm | - | - | - |
| 1777881403 | 8.89° C | 80% | 1008.2 hPa | 0 mm | - | - | - |
| 1777880644 | 9.44° C | 80% | 1008.2 hPa | 0 mm | - | - | - |
| 1777879895 | 8.89° C | 81% | 1008.3 hPa | 0 mm | - | - | - |
| 1777879194 | 8.89° C | 80% | 1008.4 hPa | 0 mm | - | - | - |
| 1777878473 | 8.89° C | 81% | 1008.6 hPa | 0 mm | - | - | - |
| 1777877768 | 8.89° C | 82% | 1008.8 hPa | 0 mm | - | - | - |
| 1777877068 | 8.33° C | 83% | 1008.9 hPa | 0 mm | - | - | - |
| 1777876349 | 8.89° C | 82% | 1009.1 hPa | 0 mm | - | - | - |
| 1777875595 | 8.89° C | 82% | 1009.1 hPa | 0 mm | - | - | - |
| 1777874865 | 8.89° C | 82% | 1009.3 hPa | 0 mm | - | - | - |
| 1777874126 | 8.89° C | 82% | 1009.4 hPa | 0 mm | - | - | - |
| 1777873385 | 8.89° C | 82% | 1009.7 hPa | 0 mm | - | - | - |
| 1777872656 | 8.89° C | 83% | 1009.7 hPa | 0 mm | - | - | - |
| 1777871966 | 8.33° C | 84% | 1009.8 hPa | 0 mm | - | - | - |
| 1777871268 | 7.78° C | 86% | 1009.9 hPa | 0 mm | - | - | - |
| 1777870573 | 7.78° C | 85% | 1009.9 hPa | 0 mm | - | - | - |
| 1777869834 | 7.78° C | 84% | 1010 hPa | 0 mm | - | - | - |
| 1777869105 | 8.33° C | 84% | 1010 hPa | 0 mm | - | - | - |
| 1777868408 | 8.33° C | 84% | 1010.1 hPa | 0 mm | - | - | - |
| 1777867661 | 8.33° C | 83% | 1010.3 hPa | 0 mm | - | - | - |
| 1777866958 | 8.33° C | 83% | 1010.3 hPa | 0 mm | - | - | - |
| 1777866234 | 8.33° C | 83% | 1010.4 hPa | 0 mm | - | - | - |
* Rain latest hour (hover to see other rain measurements)
** Current wind speed in m/s (hover to see current wind gust speed)